Temp
75 76 77 77 74 73 72 72 71 69 68 68 67 68 68 69 70 70 71 73 73 73 72 71 71 72 71 71 70 69 68 67 67 67 67 68 70 71 73 74 75 76 76
72 74 73 74 73 71 72 70 68 68 68 68 68 68 69 69 71 70 73 73 73 73 72 71 71 71 70 70 70 68 68 67 67 66 65 65 68 69 71 72 72 73 73
71 71 72 71 72 70 71 69 69 68 68 69 70 70 70 70 70 69 70 71 73 72 72 72 71 70 70 69 69 68 68 66 67 68 67 62 63 65 68 70 70 72 72
67 65 65 65 68 70 70 69 68 67 68 70 71 71 68 67 68 69 69 70 71 72 72 71 71 71 70 69 69 70 68 67 66 68 68 68 68 63 62 68 67 71 70
67 65 65 64 70 68 69 68 68 67 68 70 71 70 68 68 68 68 69 69 69 70 71 71 70 70 70 70 70 69 69 68 67 67 67 67 68 68 66 64 65 68 69
67 66 67 67 68 70 71 69 67 67 69 69 71 70 69 68 68 68 68 68 67 68 69 70 70 70 70 70 70 70 69 68 68 68 68 67 67 66 65 63 63 64 66
67 69 67 67 64 67 70 69 68 67 68 69 71 70 69 68 68 67 67 67 67 67 67 69 68 69 69 70 70 69 69 69 68 68 67 68 69 68 68 65 64 64 65
66 66 65 64 64 70 70 69 67 67 69 70 69 69 68 68 68 68 67 67 67 68 70 68 68 68 68 69 68 68 68 69 68 68 68 68 69 70 68 67 65 62 63
67 67 67 68 70 70 69 68 68 68 69 69 68 68 68 68 67 67 68 67 67 70 68 67 67 67 67 67 67 66 66 67 68 68 68 68 69 70 70 69 69 66 61
68 67 68 68 70 70 69 69 70 69 69 69 69 68 68 68 67 67 67 66 67 67 67 66 66 66 66 66 65 64 65 65 65 66 67 67 68 69 69 68 69 68 65
70 69 68 69 70 70 69 69 69 68 68 70 69 68 68 67 67 67 67 66 66 66 65 65 65 65 65 65 64 64 64 64 64 65 65 65 66 66 67 69 69 68 67
68 69 68 68 68 68 68 69 69 69 70 70 69 68 68 68 67 67 67 66 65 65 65 65 64 64 64 63 63 62 62 61 62 63 64 63 65 64 65 66 66 68 67
67 68 67 68 67 67 68 69 69 70 70 70 69 68 67 67 67 67 66 66 65 65 65 65 64 63 63 63 62 61 61 61 61 63 63 63 64 63 63 63 63 65 65
65 67 66 66 66 67 67 68 67 70 70 70 69 68 67 67 67 67 66 66 66 64 63 63 64 64 64 63 62 61 61 61 60 60 61 61 62 62 63 62 62 63 62
66 65 65 65 65 64 65 67 68 69 69 70 70 68 67 67 67 67 67 66 65 64 63 62 62 63 64 64 63 62 61 60 60 59 60 62 63 63 63 63 62 63 61
66 66 67 65 65 65 65 66 67 68 70 70 70 68 67 67 66 67 66 65 64 63 62 61 61 61 63 59 61 62 61 60 58 57 58 59 60 60 61 61 61 62 63
63 66 67 64 63 64 67 65 66 67 68 70 69 69 67 67 66 66 65 64 63 63 60 59 60 59 60 58 59 61 60 59 58 58 58 60 60 58 59 59 59 59 59
63 65 66 65 65 65 66 67 68 68 68 68 69 68 68 67 66 65 64 64 64 62 60 58 58 58 57 56 56 58 59 58 57 57 58 58 58 58 58 58 57 57 58
64 65 67 68 67 65 67 67 67 67 66 64 65 65 67 66 66 65 64 64 63 61 60 59 59 58 56 53 54 58 58 57 56 56 58 59 59 56 56 58 57 57 58
64 65 66 67 67 66 66 66 65 64 63 62 62 63 64 65 65 66 65 64 62 59 59 57 57 56 56 50 53 57 59 57 57 56 56 55 56 53 53 59 58 57 57
63 64 64 62 61 62 64 63 61 60 59 60 61 60 61 62 64 65 64 62 59 57 57 56 56 54 53 53 51 53 61 59 58 57 56 56 51 49 49 52 58 57 58
62 62 61 60 60 61 61 58 58 58 59 59 59 59 59 60 62 63 61 58 57 55 54 55 53 54 55 50 49 52 54 57 59 55 56 56 49 47 48 53 48 49 53
61 61 59 58 58 59 60 58 57 59 59 59 58 57 57 56 58 61 59 57 56 54 54 54 52 52 53 53 49 49 51 54 55 56 53 50 48 49 52 49 49 51 56
61 61 60 58 57 58 58 57 58 59 59 57 56 55 55 55 56 56 57 57 56 54 53 53 52 52 53 55 55 55 56 54 55 55 56 54 53 51 52 56 55 56 56
60 61 59 58 57 57 57 58 57 58 57 57 56 54 54 53 50 48 50 53 51 54 54 53 53 51 52 52 48 51 52 53 53 54 54 55 56 57 56 56 55 55 56
60 59 59 58 58 58 58 56 58 58 56 54 53 52 52 52 51 51 49 47 45 44 45 47 51 53 47 44 44 44 45 45 47 54 53 54 55 56 56 56 56 55 54
MSLP
1010.65 1010.98 1011.34 1011.65 1012.14 1012.73 1013.24 1013.62 1014.16 1014.66 1015.02 1015.60 1015.68 1016.00 1016.16 1016.12 1015.82 1015.69 1015.97 1015.68 1015.66 1015.54 1015.61 1015.89 1016.07 1016.13 1016.48 1016.65 1016.89 1017.22 1017.41 1017.58 1017.72 1017.96 1017.73 1017.48 1017.38 1017.39 1017.35 1017.11 1017.07 1017.04 1017.19
1010.89 1011.01 1011.28 1011.82 1012.34 1012.81 1013.42 1013.80 1014.37 1014.71 1014.92 1015.32 1015.59 1015.60 1015.74 1016.03 1015.83 1015.82 1015.54 1015.49 1015.55 1015.67 1015.89 1015.99 1016.11 1016.26 1016.33 1016.46 1016.72 1017.04 1017.32 1017.48 1017.61 1017.65 1017.83 1017.54 1017.23 1017.04 1016.99 1017.02 1017.06 1016.97 1016.92
1011.25 1012.39 1013.32 1013.35 1012.94 1013.26 1013.35 1013.85 1014.21 1014.74 1014.96 1015.20 1015.55 1015.72 1015.69 1015.78 1015.95 1016.03 1015.95 1015.85 1015.69 1015.79 1015.87 1015.90 1015.91 1016.14 1016.23 1016.33 1016.51 1016.78 1017.04 1017.18 1017.28 1017.34 1017.31 1017.51 1017.26 1017.10 1016.93 1016.87 1017.06 1016.94 1016.93
1013.50 1015.13 1015.92 1016.19 1016.42 1014.70 1014.02 1013.88 1014.54 1014.67 1014.99 1015.06 1015.36 1015.60 1015.81 1015.99 1016.28 1016.35 1016.34 1016.18 1016.08 1016.13 1016.10 1016.02 1015.93 1015.92 1016.02 1016.14 1016.19 1016.32 1016.57 1016.79 1016.88 1017.03 1017.08 1017.11 1017.01 1016.94 1017.16 1017.12 1017.20 1017.07 1016.92
1013.04 1013.79 1011.88 1016.04 1015.07 1016.05 1015.90 1014.45 1014.68 1014.76 1014.99 1014.95 1015.24 1015.62 1015.94 1016.14 1016.35 1016.50 1016.53 1016.48 1016.41 1016.25 1016.11 1016.04 1015.96 1015.93 1015.83 1015.78 1015.84 1016.00 1016.14 1016.32 1016.47 1016.64 1016.64 1016.88 1016.97 1016.88 1017.02 1017.32 1017.53 1017.32 1017.19
1012.78 1012.70 1012.52 1012.29 1013.42 1014.24 1014.96 1014.92 1014.64 1014.84 1014.96 1014.99 1015.37 1015.61 1015.90 1016.29 1016.60 1016.79 1016.87 1016.82 1016.68 1016.65 1016.42 1016.14 1015.90 1015.76 1015.76 1015.62 1015.50 1015.73 1015.87 1015.93 1016.12 1016.22 1016.22 1016.23 1016.41 1016.58 1016.80 1017.12 1017.18 1017.47 1017.44
1012.00 1012.15 1012.94 1012.16 1013.09 1013.53 1014.42 1015.01 1014.94 1015.06 1015.35 1015.00 1015.45 1015.96 1016.13 1016.56 1016.81 1017.00 1017.13 1017.10 1016.92 1016.84 1016.71 1016.36 1016.15 1016.01 1015.78 1015.56 1015.51 1015.68 1015.73 1015.84 1015.92 1015.99 1015.98 1015.96 1015.87 1015.99 1016.24 1016.56 1017.12 1017.29 1017.46
1012.18 1012.01 1012.53 1011.67 1012.77 1013.39 1014.97 1015.04 1014.99 1015.11 1015.22 1014.99 1015.41 1015.95 1016.15 1016.53 1016.97 1017.11 1017.20 1017.14 1016.98 1016.80 1016.65 1016.56 1016.36 1016.25 1016.13 1015.97 1015.72 1015.77 1015.88 1015.84 1015.91 1015.85 1015.93 1015.85 1015.85 1015.90 1015.88 1015.96 1016.47 1017.14 1017.51
1012.28 1012.42 1013.11 1013.08 1013.75 1014.31 1014.92 1014.84 1015.07 1015.42 1015.17 1015.16 1015.50 1016.25 1016.47 1016.69 1017.15 1017.47 1017.61 1017.37 1017.10 1016.99 1016.91 1016.88 1016.89 1016.82 1016.62 1016.42 1016.36 1016.46 1016.28 1016.13 1016.16 1016.17 1016.12 1016.07 1016.09 1016.01 1016.00 1016.06 1016.08 1016.45 1017.39
1012.05 1012.45 1012.50 1012.57 1013.04 1014.08 1014.41 1014.84 1014.99 1015.16 1015.30 1015.45 1015.79 1016.27 1016.70 1016.89 1017.29 1017.70 1017.84 1017.63 1017.54 1017.53 1017.42 1017.52 1017.58 1017.33 1017.25 1017.12 1016.91 1016.94 1016.90 1016.69 1016.81 1016.67 1016.45 1016.39 1016.41 1016.34 1016.26 1016.22 1016.34 1016.40 1016.67
1011.74 1012.07 1012.30 1012.78 1013.09 1013.54 1014.08 1014.94 1015.06 1015.08 1015.41 1015.39 1016.03 1016.47 1016.76 1017.11 1017.60 1018.05 1018.20 1018.14 1018.00 1018.01 1018.02 1018.12 1018.16 1018.07 1017.87 1017.74 1017.56 1017.55 1017.51 1017.48 1017.52 1017.27 1016.95 1016.90 1016.73 1016.64 1016.55 1016.40 1016.43 1016.50 1016.70
1012.01 1012.21 1012.60 1012.87 1013.39 1013.81 1014.14 1014.44 1014.69 1014.95 1015.12 1014.56 1015.87 1016.47 1016.73 1016.99 1017.60 1018.09 1018.25 1018.37 1018.48 1018.47 1018.55 1018.52 1018.63 1018.73 1018.54 1018.30 1018.32 1018.27 1018.19 1018.05 1018.14 1018.10 1017.76 1017.59 1017.38 1017.26 1017.15 1016.95 1016.86 1016.79 1017.03
1012.37 1012.35 1012.66 1012.82 1013.62 1013.96 1014.93 1014.12 1014.22 1014.98 1015.42 1015.73 1016.06 1016.65 1017.02 1017.27 1017.84 1018.31 1018.45 1018.56 1018.70 1018.88 1018.86 1018.95 1019.09 1019.12 1019.13 1019.03 1018.96 1018.94 1018.85 1018.69 1018.76 1018.74 1018.48 1018.31 1017.95 1017.80 1017.74 1017.61 1017.46 1017.31 1017.45
1012.79 1012.63 1012.93 1013.35 1014.10 1015.19 1015.37 1015.45 1014.97 1015.00 1015.57 1015.94 1016.14 1016.74 1017.08 1017.51 1017.96 1018.32 1018.53 1018.78 1018.91 1019.12 1019.17 1019.37 1019.53 1019.55 1019.51 1019.68 1019.58 1019.48 1019.49 1019.37 1019.36 1019.33 1019.17 1018.90 1018.62 1018.46 1018.30 1018.19 1018.10 1018.02 1018.08
1013.28 1013.45 1013.70 1014.04 1014.26 1014.31 1015.56 1016.03 1016.53 1015.91 1015.76 1015.88 1016.02 1016.51 1017.16 1017.49 1017.78 1018.14 1018.54 1019.03 1019.21 1019.35 1019.44 1019.72 1019.81 1019.96 1020.09 1020.11 1020.09 1020.00 1020.02 1019.98 1019.86 1019.75 1019.74 1019.63 1019.37 1019.08 1018.89 1018.83 1018.86 1018.70 1018.74
1013.05 1013.25 1013.49 1014.53 1014.92 1015.06 1014.64 1015.29 1016.06 1016.31 1015.98 1016.03 1015.95 1016.45 1017.13 1017.56 1017.39 1018.02 1018.81 1019.14 1019.36 1019.69 1019.79 1020.12 1020.25 1020.31 1020.47 1020.29 1020.45 1020.49 1020.52 1020.58 1020.53 1020.48 1020.36 1020.19 1020.00 1019.83 1019.61 1019.49 1019.50 1019.44 1019.37
1013.17 1012.76 1012.39 1013.48 1014.27 1014.56 1014.13 1013.51 1015.13 1015.12 1015.56 1015.73 1015.95 1016.38 1016.95 1017.16 1017.08 1017.66 1018.56 1019.16 1019.40 1019.78 1020.16 1020.55 1020.68 1020.73 1020.63 1020.49 1020.50 1020.76 1020.95 1020.98 1021.05 1020.99 1020.84 1020.70 1020.68 1020.51 1020.38 1020.28 1020.12 1020.11 1020.04
1012.95 1012.78 1012.88 1012.96 1013.21 1012.40 1012.67 1012.43 1013.73 1014.81 1015.99 1015.68 1015.69 1016.17 1016.38 1016.56 1016.90 1017.57 1018.29 1018.91 1019.29 1019.74 1020.39 1020.85 1021.10 1021.15 1021.17 1020.91 1020.84 1020.88 1021.26 1021.49 1021.62 1021.55 1021.45 1021.28 1021.27 1021.16 1021.05 1021.07 1021.13 1021.18 1021.09
1012.54 1013.07 1012.60 1012.45 1012.54 1012.96 1013.16 1013.21 1014.46 1015.78 1016.70 1016.40 1016.02 1016.34 1016.54 1016.71 1016.70 1017.34 1018.07 1018.56 1019.18 1019.82 1020.39 1020.91 1021.19 1021.31 1021.58 1021.49 1021.22 1021.25 1021.64 1021.89 1022.04 1022.04 1021.95 1021.80 1021.74 1021.70 1021.66 1021.58 1021.75 1021.83 1021.79
1012.80 1012.63 1012.48 1012.54 1012.90 1013.66 1014.39 1015.29 1015.97 1016.39 1016.85 1016.99 1016.97 1016.98 1017.01 1017.07 1016.96 1017.34 1017.93 1018.63 1019.34 1020.18 1020.60 1021.08 1021.40 1021.39 1021.58 1021.74 1021.53 1021.63 1021.84 1022.12 1022.32 1022.31 1022.34 1022.33 1022.10 1022.03 1022.01 1022.05 1022.13 1022.20 1022.25
1013.27 1013.06 1012.98 1013.47 1014.07 1014.27 1014.73 1015.02 1015.63 1016.41 1017.32 1017.50 1017.66 1017.71 1017.64 1017.49 1017.15 1017.27 1017.87 1018.67 1019.57 1020.35 1021.07 1021.50 1021.70 1021.70 1021.72 1021.84 1021.46 1021.56 1021.84 1022.08 1022.40 1022.56 1022.72 1022.72 1022.69 1022.52 1022.43 1022.28 1022.53 1022.55 1022.50
1013.99 1014.06 1014.11 1014.69 1014.94 1015.23 1015.83 1016.25 1016.84 1017.17 1016.89 1017.61 1017.55 1017.49 1017.62 1017.72 1017.51 1017.43 1018.22 1019.08 1019.92 1020.82 1021.41 1021.92 1022.06 1022.03 1022.02 1022.04 1021.86 1021.57 1021.76 1021.97 1022.22 1022.65 1022.84 1022.97 1023.02 1022.85 1022.74 1022.54 1022.76 1022.59 1022.56
1014.56 1014.67 1014.29 1014.86 1015.69 1015.86 1016.15 1016.52 1017.08 1017.23 1017.47 1017.91 1017.61 1017.77 1017.82 1017.59 1017.72 1017.78 1018.57 1019.34 1020.19 1020.88 1021.71 1022.07 1022.25 1022.42 1022.49 1022.45 1022.24 1022.21 1022.14 1022.02 1022.29 1022.55 1022.84 1023.06 1023.00 1022.84 1022.75 1022.91 1022.83 1022.70 1022.75
1014.68 1014.88 1014.95 1015.51 1016.06 1016.39 1016.70 1017.19 1017.50 1017.44 1017.60 1017.95 1018.18 1018.12 1018.03 1018.23 1018.44 1018.72 1019.18 1019.68 1020.41 1021.12 1021.75 1022.07 1022.42 1022.73 1022.77 1022.78 1022.80 1022.71 1022.68 1022.52 1022.38 1022.63 1022.78 1023.00 1023.08 1023.18 1023.05 1022.97 1023.00 1022.98 1023.15
1015.47 1015.41 1015.71 1016.20 1016.58 1016.92 1017.31 1017.29 1017.44 1017.50 1017.80 1018.33 1018.70 1018.82 1018.83 1019.06 1019.40 1019.80 1020.09 1020.35 1020.98 1021.14 1021.56 1021.93 1022.30 1022.65 1022.99 1023.26 1023.20 1023.03 1022.98 1022.89 1022.84 1022.89 1022.93 1023.30 1023.27 1023.33 1023.34 1023.39 1023.46 1023.45 1023.43
1015.59 1015.57 1015.82 1016.33 1016.87 1017.24 1017.35 1017.46 1017.57 1017.92 1018.02 1018.51 1019.08 1019.47 1019.59 1019.86 1019.94 1020.26 1020.94 1021.21 1021.52 1021.79 1021.99 1021.86 1022.29 1022.91 1023.07 1023.35 1023.29 1023.16 1023.13 1023.19 1023.13 1023.18 1023.22 1023.40 1023.54 1023.55 1023.53 1023.46 1023.57 1023.74 1023.79
Wind_Speed
5 6 5 5 6 7 8 7 7 3 4 2 3 2 3 2 2 3 4 1 1 2 2 1 1 2 3 3 4 2 5 3 3 0 2 4 6 7 6 6 6 7 7
7 7 8 6 5 7 6 7 6 6 4 3 2 3 3 2 2 2 3 4 2 2 0 1 1 2 2 3 3 4 1 2 5 3 0 2 1 3 5 3 4 7 4
6 7 10 5 5 6 7 7 7 6 5 5 3 2 2 2 2 2 3 4 5 5 3 1 2 3 2 3 3 5 6 4 3 6 2 2 3 1 0 1 2 4 4
22 22 25 27 23 7 4 6 5 7 5 6 3 2 1 3 1 2 2 3 4 4 3 3 2 2 1 3 3 4 5 4 4 3 4 2 1 2 1 1 1 3 2
17 15 24 32 22 12 12 4 6 6 5 5 5 4 4 3 2 2 3 4 4 4 5 4 3 3 2 3 4 3 5 4 3 4 2 4 1 1 2 2 1 2 5
13 8 10 23 16 11 7 3 6 6 5 6 5 5 6 5 3 2 2 2 3 3 4 4 4 4 3 3 2 2 5 5 5 4 3 3 3 3 2 2 1 2 2
8 8 9 12 7 8 9 7 6 6 5 7 6 6 6 5 5 4 2 2 2 2 4 5 6 4 5 5 3 1 1 3 3 5 4 3 3 2 3 3 2 2 1
7 4 5 4 4 4 8 6 7 6 6 6 7 5 6 4 3 3 2 2 1 1 4 6 7 8 7 6 6 5 4 3 1 2 3 3 4 2 2 3 4 2 1
6 2 2 7 8 8 7 7 7 5 6 6 6 5 5 6 5 4 2 2 4 5 6 7 7 7 7 7 7 5 6 6 6 4 2 1 1 1 2 1 2 4 3
4 5 5 5 6 7 6 5 6 6 4 7 5 5 5 5 5 3 3 5 5 6 7 8 7 7 8 7 7 6 7 8 6 5 6 5 3 2 1 0 1 1 3
5 7 6 6 7 7 7 5 5 6 5 7 5 5 5 6 5 4 4 4 5 5 7 6 7 7 7 7 7 8 8 9 8 8 8 8 7 5 3 1 1 1 2
8 2 6 7 6 7 8 9 6 8 8 9 6 5 6 7 6 4 4 5 6 5 6 6 7 8 8 8 9 9 8 10 10 9 9 9 6 7 6 4 3 1 3
5 3 5 8 7 8 6 8 6 5 5 4 6 5 5 5 4 4 4 5 6 5 6 7 7 8 8 8 8 8 9 10 8 8 9 8 8 8 5 6 5 3 4
3 1 2 1 4 3 4 4 3 7 6 5 5 5 6 6 5 4 4 4 5 6 6 6 6 7 8 8 8 8 9 9 9 9 9 9 9 8 7 7 6 5 6
2 5 3 4 11 8 9 6 6 2 3 4 5 6 6 5 5 5 4 4 5 5 6 6 6 6 6 4 6 7 7 7 8 8 8 9 12 16 11 5 6 6 5
3 4 4 7 6 2 10 7 3 3 3 5 5 6 6 6 7 6 5 5 6 5 6 5 5 6 3 4 6 6 6 7 7 7 7 7 11 12 16 16 17 10 5
5 3 6 11 6 8 7 8 5 3 5 6 3 6 8 9 8 8 7 6 6 6 5 5 4 5 4 7 9 9 6 6 6 6 6 7 7 9 9 14 15 16 16
6 6 5 12 9 6 4 4 5 5 5 4 5 5 7 9 8 8 7 6 5 7 5 4 4 5 4 6 10 11 7 7 7 6 6 6 7 8 8 9 10 10 10
5 3 9 11 9 7 8 10 7 5 3 3 4 5 4 7 8 8 7 6 6 6 4 3 4 5 4 5 7 8 6 6 6 5 6 4 5 7 6 8 8 7 6
7 4 5 3 7 5 5 3 4 7 6 3 4 3 2 3 6 7 8 5 7 6 5 5 4 6 4 6 4 5 4 4 3 4 5 9 4 6 6 6 5 5 2
5 6 9 8 8 7 6 5 5 6 5 5 4 3 3 2 1 5 5 7 7 8 5 6 4 5 5 6 4 6 2 3 3 3 3 4 6 8 7 5 3 1 2
5 6 10 8 8 7 7 8 6 3 6 4 5 5 4 4 2 8 8 9 8 7 5 5 3 3 4 8 7 8 7 4 4 3 2 2 6 8 8 6 6 6 3
6 5 10 10 7 7 6 7 4 4 5 4 5 4 4 5 4 7 9 7 7 6 4 3 3 2 2 3 10 9 7 8 5 3 3 3 6 7 6 9 8 6 4
7 5 8 8 6 6 6 6 5 3 4 5 4 4 5 6 6 5 4 6 6 5 4 3 3 2 2 3 2 3 4 5 5 3 3 3 5 6 3 4 6 4 3
3 5 6 6 6 5 4 5 4 4 5 4 3 4 5 6 6 7 4 5 4 3 4 3 3 4 2 2 3 3 3 2 2 3 2 1 2 2 2 3 3 3 3
3 5 6 7 6 6 5 4 4 4 5 5 4 2 3 4 4 5 6 13 9 10 9 7 4 2 6 7 5 6 4 4 0 3 1 1 2 3 2 2 2 2 3
Wind_Direction
173 159 175 148 134 128 139 148 138 103 105 93 115 101 105 337 314 274 213 201 86 46 88 152 244 195 204 218 205 204 222 244 209 244 276 257 243 244 239 243 240 237 231
151 158 144 140 155 135 135 123 112 135 139 106 140 141 154 179 230 305 33 26 28 56 94 233 262 241 239 249 220 201 223 234 181 175 146 286 309 246 232 229 231 242 238
149 59 38 36 106 136 143 135 140 138 143 129 121 101 120 99 51 25 34 23 52 47 39 356 280 280 223 233 219 207 207 233 185 219 166 159 232 313 294 93 230 261 249
72 42 17 348 337 327 117 124 122 146 152 142 134 113 111 114 87 73 71 46 40 32 20 14 348 312 275 244 235 215 210 192 199 197 217 250 225 163 64 54 20 57 27
100 95 88 318 309 301 315 116 141 151 165 131 125 110 89 91 99 87 76 39 17 19 10 5 353 329 294 271 245 225 221 195 186 198 159 196 227 137 132 168 214 120 46
121 105 102 222 257 268 250 188 160 168 170 133 131 132 126 120 106 91 73 35 15 6 3 1 8 356 328 307 314 268 219 206 204 203 200 177 175 195 170 179 257 258 51
145 138 180 200 167 221 196 187 161 155 175 137 128 136 134 145 134 127 124 83 39 17 4 15 21 15 7 357 4 14 207 215 211 219 219 218 206 170 167 136 179 186 102
158 201 200 61 307 214 192 169 164 160 167 141 131 126 121 106 99 99 96 74 24 10 41 35 35 32 29 27 31 36 29 42 88 209 227 215 223 211 179 165 147 97 91
154 67 142 147 195 166 181 175 154 171 155 123 111 104 111 108 104 86 52 40 18 53 47 41 39 34 40 42 46 39 31 46 45 46 55 32 338 263 236 218 162 147 151
145 176 197 159 136 166 165 153 167 156 127 115 120 120 123 105 97 97 69 51 52 51 49 41 37 40 38 40 51 43 32 56 39 41 59 43 16 357 338 220 228 220 141
241 203 177 165 159 156 137 154 138 107 127 118 105 121 117 105 99 98 75 61 65 55 55 49 40 40 41 34 44 54 50 52 40 36 47 44 38 44 33 62 141 107 68
295 279 149 157 163 162 145 168 146 152 155 126 144 160 128 118 121 115 97 93 86 69 70 62 56 43 47 51 51 57 54 60 51 37 44 39 38 42 33 46 48 154 97
3 115 157 166 173 144 179 169 142 125 123 132 145 134 123 110 114 119 112 107 101 88 73 67 64 60 49 50 54 58 60 63 55 42 45 39 42 42 36 42 52 53 84
355 102 151 316 68 73 70 9 109 141 143 158 140 140 135 138 140 122 124 126 112 105 90 75 74 69 64 55 63 67 62 59 53 45 44 41 40 41 43 51 43 59 75
356 52 73 115 98 83 57 21 332 113 123 167 161 146 152 154 140 140 139 137 117 106 99 95 72 64 65 66 76 70 60 54 54 47 39 37 49 50 50 52 43 67 80
360 347 139 103 102 144 144 124 50 292 220 210 187 151 161 160 154 144 146 143 125 105 101 86 82 74 65 52 104 82 70 62 51 51 45 43 39 48 55 59 57 49 74
154 196 158 131 165 195 218 131 151 194 237 240 176 157 156 178 172 142 137 148 132 117 103 95 87 74 71 81 98 88 74 67 59 55 48 55 49 51 59 54 53 49 49
84 156 154 159 195 147 203 268 161 182 228 209 198 165 186 172 151 140 145 149 140 126 117 99 85 83 51 78 97 96 85 73 55 44 48 63 52 47 67 69 60 51 50
328 125 183 190 163 163 185 219 192 148 141 181 166 101 139 175 149 148 150 141 133 121 117 115 104 91 56 36 105 102 98 86 69 50 35 50 74 61 54 78 77 67 57
327 227 184 109 133 105 112 208 146 135 122 162 114 75 110 125 143 160 151 129 122 118 116 103 92 90 83 32 148 120 118 102 95 65 38 31 58 94 85 92 91 87 66
21 73 86 75 65 61 106 131 104 93 118 107 98 81 53 31 161 150 129 130 124 113 106 101 92 72 42 43 120 141 120 115 104 79 55 27 29 77 76 78 61 20 147
60 75 88 72 67 74 85 77 62 98 93 105 102 78 53 23 4 120 114 112 118 114 115 119 88 61 53 30 52 123 100 123 110 103 90 59 62 60 53 64 54 57 125
68 74 92 86 67 64 81 107 115 94 105 96 81 80 67 58 40 113 121 116 121 122 129 145 108 85 55 52 56 69 85 98 97 107 104 95 93 97 74 46 53 61 69
75 61 73 75 75 80 95 119 141 137 100 99 71 59 76 76 62 67 82 120 127 128 144 138 124 128 97 86 80 73 78 65 80 76 68 79 84 60 51 50 42 49 41
119 111 104 102 96 98 114 128 129 125 121 101 73 81 84 85 83 64 45 88 58 107 141 137 145 142 145 138 91 96 94 94 119 114 67 22 49 38 37 48 39 33 36
134 114 114 126 141 144 143 128 130 139 127 116 111 93 96 93 92 100 85 51 61 63 75 99 121 80 102 123 104 92 100 60 251 69 80 85 61 64 44 37 34 33 22